Date String (YYYY-MM-DD hh:mm:ss) UTC,Instrument flags,absolute air pressure of the measurement (hPa),sample flow rate (lpm),inlet stack bypass flow (lpm),air temperature of the measurement (°C),ambient temperature measured by the external sensor (°C),aerosol sample conditioner tube jacket temperature (°C),OPC LED temperature (°C),internal box temperature (°C),relative humidity of the measurement (%),span deviation,mass concentration of particles derived from Lorenz-Mie calculation of OPC scattering (μg/m³),mass concentration of particles derived from Lorenz-Mie calculation of OPC scattering (μg/m³),mass concentration of particles derived from Lorenz-Mie calculation of OPC scattering (μg/m³)
DateTimeUTC,F1_M11,P_M11,Q1_M11,Q2_M11,T1_M11,T2_M11,T3_M11,T4_M11,T5_M11,U1_M11,ZSPAN_M11,X0_M11,X2_M11,X1_M11
2024-05-19 14:00:00,SystemResetWarning,0824.9,5.00,000.00,025.3,024.7,000.0,033.4,027.1,023.5,0000.0,0005.91,0003.27,0002.49
2024-05-19 14:01:00,SystemResetWarning,0824.9,5.00,000.00,025.4,024.8,000.0,033.4,027.2,023.5,0000.0,0005.79,0003.27,0002.48
2024-05-19 14:02:00,SystemResetWarning,0824.9,5.00,000.00,025.4,024.8,000.0,033.4,027.2,023.4,0000.0,0006.48,0003.28,0002.47
2024-05-19 14:03:00,SystemResetWarning,0824.9,5.00,000.00,025.4,024.9,000.0,033.4,027.2,023.6,0000.0,0006.70,0003.29,0002.47
2024-05-19 14:04:00,SystemResetWarning,0824.9,5.00,000.00,025.5,024.9,000.0,033.5,027.3,023.6,0000.0,0006.70,0003.31,0002.48
2024-05-19 14:05:00,SystemResetWarning,0824.9,5.00,000.00,025.5,024.9,000.0,033.5,027.3,024.2,0000.0,0007.18,0003.31,0002.48
2024-05-19 14:06:00,SystemResetWarning,0824.9,4.98,000.00,025.4,023.9,000.0,033.6,026.7,024.9,0000.0,0007.42,0003.32,0002.48
2024-05-19 14:07:00,SystemResetWarning,0824.9,5.00,000.00,025.0,021.8,000.0,033.6,025.5,025.7,0000.0,0007.20,0003.28,0002.46
2024-05-19 14:08:00,SystemResetWarning,0824.9,5.01,000.00,024.6,021.4,000.0,033.6,025.2,025.3,0000.0,0007.25,0003.27,0002.46
2024-05-19 14:09:00,SystemResetWarning,0824.9,5.00,000.00,024.5,021.8,000.0,033.4,025.4,025.1,0000.0,0007.06,0003.22,0002.46
2024-05-19 14:10:00,SystemResetWarning,0824.9,4.99,000.00,024.4,022.2,000.0,033.3,025.6,024.6,0000.0,0007.10,0003.22,0002.46
2024-05-19 14:11:00,SystemResetWarning,0824.9,5.00,000.00,024.5,022.6,000.0,033.2,025.9,028.1,0000.0,0007.12,0003.21,0002.47
2024-05-19 14:12:00,SystemResetWarning,0824.9,5.02,000.00,024.5,022.9,000.0,033.1,026.1,030.3,0000.0,0007.14,0003.19,0002.47
2024-05-19 14:13:00,SystemResetWarning,0824.9,5.00,000.00,024.5,023.2,000.0,033.1,026.2,030.4,0000.0,0006.95,0003.23,0002.49
2024-05-19 14:14:00,SystemResetWarning,0824.9,5.00,000.00,024.6,023.4,000.0,033.0,026.3,030.9,0000.0,0006.80,0003.25,0002.49
2024-05-19 14:15:00,SystemResetWarning,0824.9,5.00,000.00,024.6,023.6,000.0,033.0,026.4,030.4,0000.0,0007.10,0003.27,0002.49
2024-05-19 14:16:00,SystemResetWarning,0824.9,5.00,000.00,024.7,023.8,000.0,033.0,026.4,031.1,0000.0,0007.11,0003.27,0002.51
2024-05-19 14:17:00,SystemResetWarning,0824.9,5.00,000.00,024.7,023.9,000.0,033.0,026.5,030.8,0000.0,0008.54,0003.27,0002.51
2024-05-19 14:18:00,SystemResetWarning,0825.0,5.00,000.00,024.8,024.0,000.0,033.0,026.6,029.3,0000.0,0008.59,0003.29,0002.53
2024-05-19 14:19:00,SystemResetWarning,0825.0,4.99,000.00,024.8,024.1,000.0,033.0,026.6,029.5,0000.0,0008.55,0003.29,0002.53
2024-05-19 14:20:00,SystemResetWarning,0824.9,4.99,000.00,024.9,024.2,000.0,033.0,026.7,031.9,0000.0,0008.93,0003.31,0002.55
2024-05-19 14:21:00,SystemResetWarning,0824.9,5.00,000.00,024.9,024.3,000.0,033.0,026.8,029.6,0000.0,0009.93,0003.31,0002.57
2024-05-19 14:22:00,SystemResetWarning,0825.0,5.00,000.00,025.0,024.4,000.0,033.1,026.8,029.1,0000.0,0009.99,0003.34,0002.61
2024-05-19 14:23:00,SystemResetWarning,0825.0,5.01,000.00,025.0,024.5,000.0,033.1,026.9,030.2,0000.0,0009.95,0003.35,0002.64
2024-05-19 14:24:00,SystemResetWarning,0824.9,5.00,000.00,025.1,024.5,000.0,033.1,026.9,031.8,0000.0,0009.91,0003.34,0002.65
2024-05-19 14:25:00,SystemResetWarning,0824.9,5.00,000.00,025.1,024.6,000.0,033.1,027.0,031.9,0000.0,0009.90,0003.36,0002.67
2024-05-19 14:26:00,SystemResetWarning,0824.9,5.00,000.00,025.1,024.6,000.0,033.2,027.0,031.4,0000.0,0009.91,0003.34,0002.68
2024-05-19 14:27:00,SystemResetWarning,0824.9,5.00,000.00,025.2,024.7,000.0,033.2,027.0,030.7,0000.0,0010.18,0003.34,0002.68
2024-05-19 14:28:00,SystemResetWarning,0824.9,5.00,000.00,025.2,024.7,000.0,033.2,027.1,030.2,0000.0,0008.70,0003.35,0002.70
2024-05-19 14:29:00,SystemResetWarning,0824.9,5.00,000.00,025.3,024.8,000.0,033.3,027.1,029.4,0000.0,0008.58,0003.39,0002.71
2024-05-19 14:30:00,SystemResetWarning,0824.9,5.00,000.00,025.3,024.8,000.0,033.3,027.1,029.7,0000.0,0009.05,0003.39,0002.72
2024-05-19 14:31:00,SystemResetWarning,0824.9,5.00,000.00,025.3,024.7,000.0,033.4,027.1,030.8,0000.0,0010.63,0003.43,0002.74
2024-05-19 14:32:00,SystemResetWarning,0824.9,4.99,000.00,025.1,023.1,000.0,033.4,026.2,031.5,0000.0,0010.23,0003.47,0002.75
2024-05-19 14:33:00,SystemResetWarning,0824.9,5.00,000.00,024.7,021.5,000.0,033.5,025.3,032.4,0000.0,0010.45,0003.52,0002.72
2024-05-19 14:34:00,SystemResetWarning,0824.9,5.02,000.00,024.5,021.7,000.0,033.4,025.3,033.4,0000.0,0010.76,0003.60,0002.71
2024-05-19 14:35:00,SystemResetWarning,0824.9,4.99,000.00,024.4,022.1,000.0,033.2,025.5,032.4,0000.0,0011.77,0003.62,0002.72
2024-05-19 14:36:00,SystemResetWarning,0824.9,5.00,000.00,024.4,022.4,000.0,033.1,025.8,032.8,0000.0,0011.93,0003.64,0002.72
2024-05-19 14:37:00,SystemResetWarning,0824.9,5.01,000.00,024.4,022.8,000.0,033.0,026.0,032.1,0000.0,0012.00,0003.68,0002.73
2024-05-19 14:38:00,SystemResetWarning,0824.9,4.99,000.00,024.5,023.1,000.0,033.0,026.1,031.6,0000.0,0011.76,0003.70,0002.74
2024-05-19 14:39:00,SystemResetWarning,0824.9,5.00,000.00,024.5,023.3,000.0,033.0,026.3,030.6,0000.0,0013.57,0003.71,0002.75
2024-05-19 14:40:00,SystemResetWarning,0824.9,5.00,000.00,024.6,023.5,000.0,032.9,026.3,030.4,0000.0,0013.97,0003.70,0002.76
2024-05-19 14:41:00,SystemResetWarning,0824.9,5.00,000.00,024.6,023.7,000.0,032.9,026.4,030.0,0000.0,0014.56,0003.74,0002.76
2024-05-19 14:42:00,SystemResetWarning,0824.8,5.00,000.00,024.7,023.9,000.0,032.9,026.5,030.4,0000.0,0013.80,0003.82,0002.77
2024-05-19 14:43:00,SystemResetWarning,0824.8,5.00,000.00,024.7,024.0,000.0,032.9,026.6,031.0,0000.0,0013.76,0003.85,0002.77
2024-05-19 14:44:00,SystemResetWarning,0824.8,5.00,000.00,024.8,024.1,000.0,032.9,026.6,031.2,0000.0,0015.04,0003.83,0002.79
2024-05-19 14:45:00,SystemResetWarning,0824.8,5.00,000.00,024.8,024.2,000.0,033.0,026.7,030.6,0000.0,0015.16,0003.80,0002.81
2024-05-19 14:46:00,SystemResetWarning,0824.8,5.00,000.00,024.9,024.3,000.0,033.0,026.7,029.9,0000.0,0015.21,0003.83,0002.82
2024-05-19 14:47:00,SystemResetWarning,0824.8,4.99,000.00,024.9,024.4,000.0,033.0,026.8,029.8,0000.0,0016.28,0003.86,0002.84
2024-05-19 14:48:00,SystemResetWarning,0824.8,5.00,000.00,025.0,024.5,000.0,033.0,026.8,029.6,0000.0,0016.42,0003.81,0002.86
2024-05-19 14:49:00,SystemResetWarning,0824.8,5.00,000.00,025.0,024.5,000.0,033.1,026.9,029.4,0000.0,0016.49,0003.81,0002.87
2024-05-19 14:50:00,SystemResetWarning,0824.8,5.00,000.00,025.1,024.6,000.0,033.1,026.9,028.5,0000.0,0015.52,0003.81,0002.89
2024-05-19 14:51:00,SystemResetWarning,0824.8,5.00,000.00,025.1,024.6,000.0,033.1,027.0,028.3,0000.0,0015.22,0003.84,0002.88
2024-05-19 14:52:00,SystemResetWarning,0824.8,5.01,000.00,025.2,024.7,000.0,033.2,027.0,027.9,0000.0,0014.41,0003.82,0002.87
2024-05-19 14:53:00,SystemResetWarning,0824.8,5.00,000.00,025.2,024.7,000.0,033.2,027.1,028.7,0000.0,0014.81,0003.75,0002.85
2024-05-19 14:54:00,SystemResetWarning,0824.9,5.00,000.00,025.3,024.8,000.0,033.2,027.1,028.6,0000.0,0014.94,0003.71,0002.86
2024-05-19 14:55:00,SystemResetWarning,0824.9,4.99,000.00,025.3,024.8,000.0,033.3,027.2,028.0,0000.0,0013.23,0003.71,0002.86
2024-05-19 14:56:00,SystemResetWarning,0824.9,4.99,000.00,025.3,024.2,000.0,033.4,026.8,027.7,0000.0,0012.48,0003.64,0002.85
2024-05-19 14:57:00,SystemResetWarning,0824.8,5.00,000.00,024.9,022.3,000.0,033.4,025.7,028.1,0000.0,0012.11,0003.60,0002.83
2024-05-19 14:58:00,SystemResetWarning,0824.8,5.01,000.00,024.6,021.6,000.0,033.4,025.3,028.6,0000.0,0010.18,0003.55,0002.81
2024-05-19 14:59:00,SystemResetWarning,0824.8,5.02,000.00,024.5,022.0,000.0,033.3,025.5,030.1,0000.0,0009.87,0003.54,0002.80
